Mattoon, IL

7:21 PM CDT on August 24, 2019 (GMT -0500)
Coles County Memorial

Weather History for KMTO - July, 2019

Change the Weather History Date:

Wednesday, July 17, 2019

  Actual Average Record
Temperature  
Mean Temperature 82 °F 76 °F  
Max Temperature 89 °F 86 °F 101 °F (1988)
Min Temperature 74 °F 66 °F 52 °F (2014)
Degree Days  
Heating Degree Days 0 0  
Month to date heating degree days 0 0  
Since 1 June heating degree days 4 17  
Since 1 July heating degree days 0 0  
Cooling Degree Days 17 11  
Month to date cooling degree days 230 185  
Year to date cooling degree days 571 496  
Since 1 June cooling degree days 446 408  
Growing Degree Days 31 (Base 50)    
Moisture  
Dew Point 73 °F    
Average Humidity 80    
Maximum Humidity 100    
Minimum Humidity 59    
Precipitation  
Precipitation T in 0.17 in 2.09 in (2007)
Month to date precipitation 2.38 2.42  
Year to date precipitation 20.58 21.01  
Sea Level Pressure  
Sea Level Pressure 29.91 in    
Wind  
Wind Speed 6 mph (WSW)    
Max Wind Speed 12 mph    
Max Gust Speed 18 mph    
Visibility 9 miles    
Events      
T = Trace of Precipitation, MM = Missing Value Source: NWS Daily Summary

Daily Weather History Graph

Daily Weather History Graph

Search for Another Location

Airport or City:

Astronomy

Jul. 17, 2019 Rise Set
Actual Time 5:39 AM CDT 8:18 PM CDT
Civil Twilight 5:08 AM CDT 8:49 PM CDT
Nautical Twilight 4:29 AM CDT 9:28 PM CDT
Astronomical Twilight 3:45 AM CDT 10:12 PM CDT
Moon 9:06 PM CDT (7/17) 6:12 AM CDT (7/17)
Length of Visible Light 15h 41m
Length of Day
14h 38m
Full, 99% of the Moon is Illuminated
Jul 17
Full
Jul 24
Last Quarter
Jul 31
New
Aug 7
First Quarter
Aug 15
Full

Hourly Weather History & Observations

Time (CDT) Temp. Heat Index Dew Point Humidity Pressure Visibility Wind Dir Wind Speed Gust Speed Precip Events Conditions
12:16 AM 75.0 °F - 73.0 °F 94% 29.90 in 10.0 mi SW 5.8 mph - N/A   Mostly Cloudy
1:01 AM 73.9 °F - 73.0 °F 97% 29.89 in 8.0 mi SW 4.6 mph - N/A   Scattered Clouds
1:16 AM 73.9 °F - 73.0 °F 97% 29.89 in 7.0 mi SW 4.6 mph - N/A   Mostly Cloudy
1:53 AM 73.9 °F - 73.0 °F 97% 29.87 in 8.0 mi WSW 5.8 mph - N/A   Mostly Cloudy
2:46 AM 73.9 °F - 73.0 °F 97% 29.89 in 8.0 mi SW 4.6 mph - N/A   Mostly Cloudy
2:53 AM 73.9 °F - 73.0 °F 97% 29.88 in 7.0 mi WSW 4.6 mph - N/A   Mostly Cloudy
3:53 AM 73.9 °F - 73.0 °F 97% 29.88 in 5.0 mi West 4.6 mph - N/A   Overcast
4:46 AM 73.9 °F - 73.0 °F 97% 29.91 in 6.0 mi West 3.5 mph - N/A   Mostly Cloudy
4:53 AM 73.9 °F - 73.0 °F 97% 29.90 in 6.0 mi West 3.5 mph - N/A   Mostly Cloudy
5:53 AM 73.9 °F - 73.0 °F 97% 29.91 in 9.0 mi West 4.6 mph - N/A   Overcast
6:53 AM 75.0 °F - 73.0 °F 94% 29.91 in 9.0 mi WSW 4.6 mph - N/A   Clear
7:53 AM 78.1 °F - 73.9 °F 87% 29.92 in 10.0 mi WNW 5.8 mph - N/A   Clear
8:53 AM 80.1 °F 84.5 °F 73.9 °F 81% 29.95 in 10.0 mi WNW 8.1 mph - N/A   Mostly Cloudy
9:53 AM 82.9 °F 90.2 °F 75.0 °F 77% 29.95 in 10.0 mi NW 8.1 mph - N/A   Partly Cloudy
10:53 AM 84.9 °F 91.4 °F 73.0 °F 67% 29.95 in 10.0 mi WNW 8.1 mph - N/A   Partly Cloudy
11:53 AM 84.9 °F 90.7 °F 72.0 °F 65% 29.96 in 10.0 mi West 5.8 mph - N/A   Partly Cloudy
12:53 PM 84.0 °F 90.2 °F 73.0 °F 69% 29.95 in 10.0 mi WNW 8.1 mph - N/A   Mostly Cloudy
1:53 PM 88.0 °F 93.8 °F 71.1 °F 57% 29.94 in 10.0 mi West 9.2 mph - N/A   Partly Cloudy
2:53 PM 88.0 °F 94.7 °F 72.0 °F 59% 29.92 in 10.0 mi SSW 5.8 mph - N/A   Clear
3:53 PM 88.0 °F 93.8 °F 71.1 °F 57% 29.91 in 10.0 mi Variable 5.8 mph - N/A   Clear
4:53 PM 89.1 °F 97.0 °F 73.0 °F 59% 29.92 in 10.0 mi SW 3.5 mph 17.3 mph N/A   Partly Cloudy
5:53 PM 86.0 °F 93.0 °F 73.0 °F 65% 29.90 in 10.0 mi West 4.6 mph - N/A   Scattered Clouds
6:53 PM 84.0 °F 91.2 °F 73.9 °F 72% 29.91 in 10.0 mi WNW 6.9 mph - N/A   Clear
7:53 PM 82.9 °F 89.4 °F 73.9 °F 74% 29.93 in 10.0 mi West 3.5 mph - N/A   Clear
8:53 PM 81.0 °F 86.7 °F 75.0 °F 82% 29.89 in 10.0 mi SSW 6.9 mph - 0.00 in   Partly Cloudy
9:53 PM 79.0 °F - 73.9 °F 84% 29.89 in 10.0 mi SSW 4.6 mph - N/A   Partly Cloudy
10:53 PM 77.0 °F - 73.9 °F 90% 29.88 in 10.0 mi SSE 3.5 mph - N/A   Partly Cloudy
11:53 PM 75.9 °F - 73.9 °F 94% 29.90 in 10.0 mi West 3.5 mph - N/A   Clear